This is the latest recevied weather packets stored in our database for station/object KJ5IIV. If no packets are shown the sender has not sent any weather packets the latest 10 day(s).
| Time | Temp. | Humidity | Pressure | Rain* | Wind** | Luminosity | Snow |
|---|---|---|---|---|---|---|---|
| 1777888533 | 15° C | 77% | 1014.8 hPa | 0 mm | - | 0 W/m² | - |
| 1777887624 | 15° C | 75% | 1014.7 hPa | 0 mm | - | 0 W/m² | - |
| 1777887320 | 15° C | 77% | 1014.8 hPa | 0 mm | - | 0 W/m² | - |
| 1777887015 | 15° C | 77% | 1014.7 hPa | 0 mm | - | 0 W/m² | - |
| 1777886711 | 15° C | 77% | 1014.6 hPa | 0 mm | - | 0 W/m² | - |
| 1777886409 | 15° C | 76% | 1014.6 hPa | 0 mm | - | 0 W/m² | - |
| 1777886107 | 15° C | 75% | 1014.5 hPa | 0 mm | - | 0 W/m² | - |
| 1777885804 | 15° C | 75% | 1014.7 hPa | 0 mm | - | 0 W/m² | - |
| 1777885502 | 15° C | 75% | 1014.8 hPa | 0 mm | - | 0 W/m² | - |
| 1777885200 | 15° C | 75% | 1014.8 hPa | 0 mm | - | 0 W/m² | - |
| 1777884897 | 15° C | 75% | 1014.7 hPa | 0 mm | - | 0 W/m² | - |
| 1777884593 | 15.56° C | 75% | 1014.8 hPa | 0 mm | - | 0 W/m² | - |
| 1777883986 | 15.56° C | 73% | 1014.8 hPa | 0 mm | - | 0 W/m² | - |
| 1777883684 | 15.56° C | 74% | 1014.6 hPa | 0 mm | - | 0 W/m² | - |
| 1777883379 | 15.56° C | 74% | 1014.7 hPa | 0 mm | - | 0 W/m² | - |
| 1777883077 | 15° C | 75% | 1014.6 hPa | 0 mm | - | 0 W/m² | - |
| 1777882470 | 14.44° C | 78% | 1014.7 hPa | 0 mm | - | 0 W/m² | - |
| 1777882166 | 13.89° C | 79% | 1014.6 hPa | 0 mm | - | 0 W/m² | - |
| 1777881863 | 14.44° C | 79% | 1014.8 hPa | 0 mm | - | 0 W/m² | - |
| 1777881559 | 14.44° C | 78% | 1014.6 hPa | 0 mm | - | 0 W/m² | - |
| 1777881256 | 14.44° C | 77% | 1014.8 hPa | 0 mm | - | 0 W/m² | - |
| 1777880954 | 14.44° C | 78% | 1014.7 hPa | 0 mm | - | 0 W/m² | - |
| 1777880652 | 14.44° C | 78% | 1014.8 hPa | 0 mm | - | 0 W/m² | - |
| 1777880350 | 14.44° C | 77% | 1014.9 hPa | 0 mm | - | 0 W/m² | - |
| 1777880048 | 14.44° C | 79% | 1014.9 hPa | 0 mm | - | 0 W/m² | - |
* Rain latest hour (hover to see other rain measurements)
** Current wind speed in m/s (hover to see current wind gust speed)